Regional Weather Roundup
Issued by NWS

Home | Current Version | Previous Version | Graphics & Text | Print | Product List | Glossary On
Versions: 1 2 3 4 5 6 7 8 9 10 11 12 13 14 15 16 17 18 19 20 21 22 23 24 25
000
ASUS45 KCYS 170710
RWRWY

WYOMING REGIONAL WEATHER ROUNDUP
NATIONAL WEATHER SERVICE CHEYENNE WY
1200 AM MST SAT FEB 17 2018

NOTE:  "FAIR" INDICATES FEW OR NO CLOUDS BELOW 12,000 FEET
WITH NO SIGNIFICANT WEATHER AND/OR OBSTRUCTIONS TO VISIBILITY.

WYZ001-170800-
YELLOWSTONE NATIONAL PARK

CITY           SKY/WX    TMP DP  RH WIND       PRES   REMARKS
LK YELLOWSTONE   N/A     15  10  80 VRB6      29.88R WCI   6
W YELLOWSTONE  NOT AVBL

$$
WYZ002>013-054>058-071-098>099-170800-
NORTHERN WYOMING

CITY           SKY/WX    TMP DP  RH WIND       PRES   REMARKS
JACKSON        FLURRIES  24  15  68 SW16G26   29.95R WCI  11
CODY           FAIR      29  17  61 W15G26    29.82S WCI  18
GREYBULL       CLOUDY    21  14  74 CALM      29.89R
WORLAND        MOCLDY     9   7  92 SW6       29.89R WCI  -1
SHERIDAN       CLOUDY    26  17  68 S5        29.80S WCI  20
BUFFALO        CLOUDY    26  11  52 SW7       29.80S WCI  18
GILLETTE       FAIR      24  12  60 W10       29.80R WCI  14
HULETT         PTSUNNY   23  14  68 S9        29.79F WCI  13
NEWCASTLE      FAIR      18   9  68 N3        29.82S

$$
WYZ014>020-022>026-101>103-170800-
CENTRAL WYOMING

CITY           SKY/WX    TMP DP  RH WIND       PRES   REMARKS
BIG PINEY      CLOUDY    18  15  88 NE3       29.97R
PINEDALE       FLURRIES  19  16  86 W3        29.97R
DUBOIS           N/A    N/A N/A N/A MISG        N/A
LANDER         FAIR      29  10  45 W6        29.88R WCI  23
RIVERTON       MOCLDY    20   8  60 W13       29.88R WCI   7
CASPER         MOCLDY    24  12  60 W15       29.85F WCI  11
DOUGLAS        MOCLDY    29  13  51 W23       29.84R WCI  15

$$
WYZ021-027>030-104>119-170800-
SOUTHERN WYOMING

CITY           SKY/WX    TMP DP  RH WIND       PRES   REMARKS
EVANSTON       MOCLDY    26  13  57 W16       30.08R WCI  14
FORT BRIDGER   FAIR      28  13  54 W28G44    30.03R WCI  12
ROCK SPRINGS   CLOUDY    28   9  44 W22G36    30.00S WCI  14
DIXON          CLOUDY    25  15  66 W7        30.07R WCI  17
RAWLINS        FAIR      24  10  55 W26G35    29.94S WCI   8
SARATOGA       CLOUDY    25  14  63 W20G25    29.96S WCI  11
LARAMIE        MOCLDY    21  14  74 W35G41    29.85R WCI   2
CHEYENNE       FAIR      30  13  49 NW32G51   29.82R WCI  14
TORRINGTON     FAIR      33  16  49 W21G29    29.83R WCI  21
PINE BLUFFS    FAIR      32  14  47 MISG      29.88R

$$




USA.gov is the U.S. government's official web portal to all federal, state and local government web resources and services.